www.pogodaiklimat.ru

Погода и климат >> Архив погоды >> Россия >> Хабаровский край >> Бикин


ПОГОДА в Бикине

  • Прогноз погоды в Бикине
  • Монитор погоды в Бикине

АРХИВ ПОГОДЫ в Бикине

Время (UTC), дата Ветер
(напр.,м/с)
 
Видим.   Явления Облачность Т
(С)
Тd
(С)
f
(%)
Тe
(С)
Тes
(С)
Комфортность P
(гПа)
Po
(гПа)
Тmin
(С)
Tmax
(С)
R
(мм)
R24
(мм)
S
(см)
03 12.09 ЮЗ 1 20 км 1/1 600 м
[Cu hum]
+19.6 +9.1 51 +22 +34 комфорт 1019.8 1011.8
06 12.09 СВ 1 20 км 4/4 600 м
[Cu hum]
+21.1 +8.2 43 +22 +26 комфорт 1018.4 1010.5
09 12.09 С 1 20 км 6/0
[Cc]
+19.0 +9.4 54 +21 +21 комфорт 1017.6 1009.7 +21.9
12 12.09 В 1 20 км 10/0
[Cs]
+12.3 +10.0 86 +12 +12 1019.1 1010.9
15 12.09 штиль 0 10 км 10/0
[Cs]
+10.0 +8.8 92 +9 +9 1018.1 1009.9
18 12.09 штиль 0 10 км ясно +8.5 +7.7 95 +8 +8 1017.4 1009.2
21 12.09 В 1 20 км ясно +9.1 +7.9 92 +8 +8 1017.6 1009.3 +7.1
00 13.09 ЮВ 4 20 км 9/0
[Ci fib]
+15.3 +10.0 71 +14 +17 1016.8 1008.8
03 13.09 Ю 3 20 км 10/0
[Cs]
+20.6 +12.1 58 +23 +31 комфорт 1014.0 1006.2
06 13.09 Ю 2 20 км 10/0
[Ac As]
+21.5 +10.8 51 +23 +25 комфорт 1012.0 1004.2
09 13.09 Ю 3 20 км 8/0
[Ac trans]
+19.6 +11.2 58 +21 +21 комфорт 1009.8 1001.9 +22.3
12 13.09 Ю 4 20 км 9/0
[Ac trans]
+19.5 +10.6 56 +21 +21 комфорт 1009.2 1001.3
15 13.09 Ю 3 20 км ясно +17.5 +11.5 68 +18 +18 1007.8 999.8
18 13.09 Ю 4
{11}
20 км 10/0
[]
+14.0 +11.9 87 +13 +13 1006.7 998.7
21 13.09 В 1 20 км в посл. час дождь 10/10 600 м
[Sc]
+13.6 +12.9 96 +14 +14 1007.5 999.5 +13.3 6
00 14.09 СЗ 1 20 км {дождь} 10/10 600 м
[Cb calv]
+16.0 +13.5 85 +17 +17 1009.9 1002.0
03 14.09 С 2 20 км 5/5 600 м
[Cu hum]
+20.2 +11.6 58 +23 +28 комфорт 1010.2 1002.4
06 14.09 СЗ 2 20 км ясно +21.6 +6.4 37 +22 +28 комфорт 1010.2 1002.4
09 14.09 С 1 20 км ясно +18.2 +8.4 53 +19 +19 1011.3 1003.4 +21.9
12 14.09 В 1 20 км ясно +11.2 +9.5 89 +11 +11 1013.9 1005.7
15 14.09 штиль 0 10 км ясно +9.4 +8.6 95 +9 +9 1014.3 1006.1
18 14.09 штиль 0 10 км ясно +8.0 +7.4 96 +7 +7 1014.4 1006.1
21 14.09 штиль 0 20 км ясно +6.5 +5.8 95 +5 +5 1015.0 1006.7 +6.5
00 15.09 ЮВ 3 20 км ясно +13.9 +10.5 80 +13 +17 1014.7 1006.6 +6.3
03 15.09 ЮВ 3 20 км 3/1 600 м
[Cu hum Ci fib]
+20.5 +11.4 56 +23 +31 комфорт 1013.3 1005.4
06 15.09 Ю 3 20 км 3/0
[Ci fib]
+22.7 +7.3 37 +24 +28 комфорт 1011.1 1003.3
09 15.09 Ю 1 20 км ясно +19.4 +8.3 49 +21 +21 комфорт 1010.4 1002.5 +23.0
12 15.09 В 1 20 км ясно +14.7 +9.1 69 +15 +15 1010.2 1002.2
15 15.09 ЮВ 2 10 км 10/0
[Cs]
+14.2 +9.1 71 +14 +14 1009.9 1001.8
18 15.09 В 2 10 км 10/3
[Cb calv Cs]
+13.9 +8.9 72 +13 +13 1009.7 1001.7
21 15.09 В 2 20 км 10/3 600 м
[Cb calv Cc]
+12.3 +8.9 80 +11 +11 1009.6 1001.5 +12.2
00 16.09 штиль 0 20 км 8/4 600 м
[Cb calv Cc]
+15.2 +10.6 74 +15 +19 1011.6 1003.6
03 16.09 СЗ 2 20 км 8/8 600 м
[Cb calv]
+19.5 +11.2 59 +21 +23 комфорт 1011.3 1003.4
06 16.09 СЗ 3 20 км 1/1 600 м
[Cu hum]
+18.5 +2.0 33 +19 +23 1011.7 1003.8
09 16.09 СЗ 2 20 км ясно +14.0 +0.3 39 +14 +14 1013.2 1005.1 +20.1
12 16.09 СВ 2 20 км ясно +6.2 +3.6 83 +4 +4 1015.3 1007.0
15 16.09 В 1 20 км ясно +4.6 +2.6 87 +3 +3 1016.2 1007.9
18 16.09 штиль 0 10 км ясно +2.1 +1.5 96 +1 +1 1017.0 1008.5
21 16.09 штиль 0 20 км ясно +0.9 +0.5 97 -0 -0 1017.5 1009.0 +0.9
00 17.09 штиль 0 20 км ясно +12.2 +4.8 61 +12 +19 1017.5 1009.3
03 17.09 З 1 20 км 1/1 600 м
[Cu med, cong]
+17.3 -0.5 30 +18 +30 опасность
простуды
1016.1 1008.1
06 17.09 ЮВ 2 20 км ясно +18.3 +1.9 33 +19 +24 1013.9 1005.9
09 17.09 ЮВ 1 20 км ясно +15.3 +2.9 43 +16 +16 1012.6 1004.6 +18.6
12 17.09 В 1 20 км ясно +9.0 +3.8 70 +9 +9 1011.4 1003.2
15 17.09 ЮВ 2 10 км 1/0
[Cc]
+9.1 +3.4 67 +8 +8 1009.0 1000.8
18 17.09 ЮВ 3 10 км 10/4 600 м
[Sc Ac cast Ci fib]
+8.2 +3.2 71 +6 +6 1006.2 998.0
21 17.09 Ю 2 4000 м слаб. ливневой дождь 10/10 600 м
[Cb calv]
+8.8 +6.0 83 +7 +7 1004.8 996.7 +7.0 0.6
00 18.09 З 2 20 км {ливн. осадки} 10/10 600 м
[Cb calv]
+8.9 +5.3 78 +7 +7 1007.7 999.5
03 18.09 З 2
{10}
20 км 10/10 600 м
[Cb calv]
+9.1 +3.3 67 +8 +8 1009.3 1001.2
06 18.09 З 2
{11}
20 км {ливн. осадки} 6/6 600 м
[Cb calv]
+9.8 +3.2 63 +9 +11 1009.2 1001.1
09 18.09 СЗ 2 20 км 10/10 600 м
[Cb calv]
+7.3 +3.1 75 +5 +5 1010.3 1002.1 +10.4 4
12 18.09 штиль 0
{10}
10 км в посл. час ливневой дождь 8/8 600 м
[Cb calv]
+5.0 +3.1 88 +4 +4 1010.4 1002.1
15 18.09 З 1 10 км 10/10 600 м
[Cb calv]
+6.0 +2.4 78 +5 +5 1008.2 1000.0
18 18.09 З 2
{10}
10 км в посл. час ливневой дождь 8/8 600 м
[Cb calv]
+6.7 +1.4 69 +5 +5 1006.1 997.9
21 18.09 З 2 20 км 10/10 600 м
[Cb calv]
+7.0 0.0 61 +5 +5 1004.9 996.7 +4.4 0.1
00 19.09 З 2
{10}
20 км {ливн. осадки} 10/10 600 м
[Cb calv]
+5.9 +1.6 74 +4 +4 1005.4 997.2

 

Местоположение метеостанции Бикин (Хабаровский край, Россия): широта 46.80 долгота 134.20 высота над уровнем моря 68 м.

В архиве по умолчанию представлена погода в Бикине за последнюю неделю. Архивные данные за месяц целиком и за предыдущие месяцы, начиная с января 2011 года, Вы можете получить, выбрав интересующий диапазон дат из раскрывающегося списка и нажав кнопку "Ввод!".


*Определитесь, кто Вы:
робот инопланетянин человек

Внимание! Время в таблицах - всемирное. Для получения местного времени необходимо прибавить поправку, которая равна 10 ч.

Смотрите также архив погоды в соседних городах и на ближайших метеорологических станциях:

Погода в Лермонтовке (Хабаровский край, Россия) (40 км)
Погода в Вяземском (Хабаровский край, Россия) (89 км)
Погода в Красном Яре (Приморский край, Россия) (89 км)
Погода в Дальнереченске (Приморский край, Россия) (110 км)
Погода в Глубинном (Приморский край, Россия) (117 км)
Погода в Хоре (Хабаровский край, Россия) (132 км)
Погода в Георгиевке (Хабаровский край, Россия) (148 км)
Погода в Хулине (Хэйлунцзян, Китай) (149 км)
Погода в Бичевой (Хабаровский край, Россия) (151 км)
Погода в Малиново (Приморский край, Россия) (153 км)

Пояснения к столбцам:

Ветер - указаны скорость ветра в м/с - средняя за 10 мин, порывы в срок и между сроками (в фигурных скобках) и направление, откуда дует ветер: С - северный, СВ - северо-восточный, В - восточный, ЮВ - юго-восточный, Ю - южный, ЮЗ - юго-западный, З - западный, СЗ - северо-западный.
Видимость - горизонтальная дальность видимости в метрах или километрах. При видимости от 1 до 10 км при отсутствии осадков обычно наблюдается дымка, при ухудшении видимости до 1 км и менее - туман. В сухую погоду видимость может ухудшаться дымом, пылью или мглою.
Явления - указаны атмосферные явления, наблюдавшиеся в срок или в последний час перед сроком; фигурными скобками обозначены явления, наблюдавшиеся между сроками (за 1-3 часа до срока); квадратными скобками обозначены град или гололедные отложения с указанием их диаметра в мм.
Облачность - указаны через наклонную черту общая и нижняя облачность в баллах и высота нижней границы облаков в метрах; квадратными скобками обозначены формы облаков: Ci - перистые, Cs - перисто-слоистые, Cc - перисто-кучевые, Ac - высококучевые, As - высокослоистые, Sc - слоисто-кучевые, Ns - слоисто-дождевые, Cu - кучевые, Cb - кучево-дождевые. Подробнее классификацию облаков см. в Атласе облаков (PDF).
T - Температура воздуха - температура, измеренная на высоте 2 м над землей.
Td - Температура точки росы - температура, при понижении до которой содержащийся в воздухе водяной пар достигнет насыщения.
f - Относительная влажность воздуха - влажноcть воздуха, измеренная на высоте 2 м над землей.
Te - Эффективная температура - температура, которую ощущает одетый по сезону человек в тени. Характеристика душности погоды. При расчете учитывается влияние влажности воздуха и скорости ветра на теплоощущения человека.
Tes - Эффективная температура на солнце - температура, которую ощущает человек, с поправкой на солнечный нагрев. Характеристика знойности погоды. Зависит от высоты солнца над горизонтом, облачности и скорости ветра. Ночью, в пасмурную погоду, а также при ветре 12 м/с и более поправка равна нулю.
P - Атмосферное давление - приведенное к уровню моря атмосферное давление.
Po - Атмосферное давление - измеренное на уровне метеостанции атмосферное давление.
Tmin - Минимальная температура - минимум температуры воздуха на высоте 2 м над землей.
Tmax - Максимальная температура - максимум температуры воздуха на высоте 2 м над землей.
R - Количество осадков - Количество выпавших осадков за период времени, мм. При наведении курсора мыши на число - период времени, за который выпало указанное количество осадков.
R24 - Количество осадков - Количество выпавших осадков за 24 часа, мм.
S - Снежный покров - Высота снежного покрова, см. При наведении курсора мыши на число - состояние снежного покрова и степень покрытия местности в баллах.